Broomfield, CO

4:24 AM MDT on September 26, 2017 (GMT -0600)
Jeffco

Weather History for KBJC - April, 2013

Change the Weather History Date:

Saturday, April 6, 2013

  Actual Average Record
Temperature  
Mean Temperature 53 °F -  
Max Temperature 64 °F 54 °F 81 °F (1991)
Min Temperature 42 °F 32 °F 21 °F (1997)
Degree Days  
Heating Degree Days 12    
Growing Degree Days 3 (Base 50)    
Moisture  
Dew Point 20 °F    
Average Humidity 30    
Maximum Humidity 50    
Minimum Humidity 12    
Precipitation  
Precipitation 0.00 in - - ()
Sea Level Pressure  
Sea Level Pressure 29.91 in    
Wind  
Wind Speed 8 mph (NW)    
Max Wind Speed 29 mph    
Max Gust Speed 36 mph    
Visibility 10 miles    
Events      
Averages and records for this station are not official NWS values.
T = Trace of Precipitation, MM = Missing Value Source: NWS Daily Summary

Daily Weather History Graph

Daily Weather History Graph

Search for Another Location

Airport or City:

Trip Planner

Search our weather history database for the weather conditions in past years. The results will help you decide how hot, cold, wet, or windy it might be!

Date:

Astronomy

Apr. 06, 2013 Rise Set
Actual Time 6:36 AM MDT 7:30 PM MDT
Civil Twilight 6:08 AM MDT 7:57 PM MDT
Nautical Twilight 5:36 AM MDT 8:30 PM MDT
Astronomical Twilight 5:02 AM MDT 9:04 PM MDT
Moon 4:21 AM MDT (4/6) 4:01 PM MDT (4/6)
Length of Visible Light 13h 49m
Length of Day
12h 53m
Waning Crescent, 14% of the Moon is Illuminated
Apr 6
Waning Crescent
Apr 10
New
Apr 18
First Quarter
Apr 25
Full
May 2
Last Quarter

Hourly Weather History & Observations

Time (MDT) Temp. Windchill Dew Point Humidity Pressure Visibility Wind Dir Wind Speed Gust Speed Precip Events Conditions
12:15 AM 51.8 °F - 23.0 °F 33% 29.88 in 10.0 mi Calm Calm - N/A   Clear
12:34 AM 50.0 °F - 21.2 °F 32% 29.88 in 10.0 mi West 6.9 mph - N/A   Clear
12:55 AM 50.0 °F - 21.2 °F 32% 29.90 in 10.0 mi NNW 5.8 mph - N/A   Clear
1:15 AM 50.0 °F - 26.6 °F 40% 29.91 in 10.0 mi North 4.6 mph - N/A   Clear
1:35 AM 50.0 °F - 28.4 °F 43% 29.91 in 10.0 mi Calm Calm - N/A   Clear
1:55 AM 48.2 °F - 28.4 °F 46% 29.91 in 10.0 mi WSW 3.5 mph - N/A   Clear
2:15 AM 46.4 °F 43.5 °F 28.4 °F 50% 29.92 in 10.0 mi West 5.8 mph - N/A   Clear
2:35 AM 48.2 °F - 23.0 °F 37% 29.92 in 10.0 mi NW 11.5 mph - N/A   Clear
2:55 AM 46.4 °F 41.5 °F 21.2 °F 37% 29.92 in 10.0 mi West 10.4 mph - N/A   Clear
3:15 AM 48.2 °F - 19.4 °F 32% 29.93 in 10.0 mi West 28.8 mph 35.7 mph N/A   Clear
3:34 AM 48.2 °F - 19.4 °F 32% 29.93 in 10.0 mi West 19.6 mph 23.0 mph N/A   Clear
3:54 AM 50.0 °F - 17.6 °F 28% 29.93 in 10.0 mi WNW 18.4 mph 29.9 mph N/A   Clear
4:15 AM 48.2 °F - 17.6 °F 30% 29.93 in 10.0 mi WNW 18.4 mph 24.2 mph N/A   Clear
4:34 AM 48.2 °F - 17.6 °F 30% 29.94 in 10.0 mi WNW 13.8 mph 18.4 mph N/A   Clear
4:55 AM 46.4 °F 41.5 °F 17.6 °F 32% 29.94 in 10.0 mi WNW 10.4 mph - N/A   Clear
5:15 AM 46.4 °F 40.4 °F 17.6 °F 32% 29.93 in 10.0 mi West 13.8 mph - N/A   Clear
5:35 AM 42.8 °F 36.6 °F 17.6 °F 36% 29.93 in 10.0 mi WNW 11.5 mph - N/A   Clear
5:47 AM 44.6 °F 38.8 °F 17.6 °F 34% 29.93 in 40.0 mi WNW 11.5 mph - N/A   Partly Cloudy
5:55 AM 42.8 °F 36.2 °F 19.4 °F 39% 29.92 in 10.0 mi NW 12.7 mph - N/A   Clear
6:47 AM 46.4 °F 42.4 °F 19.4 °F 34% 29.94 in 50.0 mi North 8.1 mph - N/A   Partly Cloudy
7:47 AM 48.2 °F - 19.4 °F 32% 29.96 in 70.0 mi East 4.6 mph - N/A   Scattered Clouds
9:50 AM 53.6 °F - 19.4 °F 26% 29.96 in 60.0 mi SE 8.1 mph - N/A   Mostly Cloudy
11:55 AM 57.2 °F - 15.8 °F 20% 29.95 in 60.0 mi WNW 5.8 mph - N/A   Mostly Cloudy
11:59 AM 55.4 °F - 17.6 °F 23% 29.97 in 60.0 mi SSE 5.8 mph - N/A   Mostly Cloudy
12:47 PM 59.0 °F - 15.8 °F 19% 29.93 in 70.0 mi South 16.1 mph 21.9 mph N/A   Mostly Cloudy
1:24 PM 62.6 °F - 10.4 °F 13% 29.92 in 70.0 mi NW 10.4 mph 34.5 mph N/A   Mostly Cloudy
1:48 PM 62.6 °F - 10.4 °F 13% 29.91 in 70.0 mi West 16.1 mph 24.2 mph N/A   Mostly Cloudy
2:50 PM 64.4 °F - 10.4 °F 12% 29.89 in 70.0 mi Variable 4.6 mph - N/A   Mostly Cloudy
3:50 PM 64.4 °F - 12.2 °F 13% 29.86 in 70.0 mi NW 4.6 mph - N/A   Mostly Cloudy
4:50 PM 62.6 °F - 14.0 °F 15% 29.86 in 70.0 mi East 10.4 mph - N/A   Mostly Cloudy
5:50 PM 62.6 °F - 15.8 °F 16% 29.88 in 60.0 mi NNE 4.6 mph - N/A   Mostly Cloudy
6:51 PM 59.0 °F - 19.4 °F 22% 29.87 in 60.0 mi NNE 3.5 mph - N/A   Mostly Cloudy
7:51 PM 55.4 °F - 21.2 °F 26% 29.89 in 30.0 mi North 4.6 mph - N/A   Overcast
8:47 PM 57.2 °F - 19.4 °F 23% 29.91 in 30.0 mi North 8.1 mph - N/A   Overcast
9:47 PM 55.4 °F - 21.2 °F 26% 29.91 in 30.0 mi NNW 3.5 mph - N/A   Overcast
11:15 PM 51.8 °F - 32.0 °F 47% 29.90 in 10.0 mi ENE 4.6 mph - N/A   Clear
11:35 PM 51.8 °F - 32.0 °F 47% 29.89 in 10.0 mi ENE 3.5 mph - N/A   Clear
11:55 PM 50.0 °F - 32.0 °F 50% 29.89 in 10.0 mi ESE 3.5 mph - N/A   Clear